Time,TemperatureF,DewpointF,PressureIn,WindDirection,WindDirectionDegrees,WindSpeedMPH,WindSpeedGustMPH,Humidity,HourlyPrecipIn,Conditions,Clouds,dailyrainin,SoftwareType,DateUTC
2013-07-27 00:00:00,70.0,50.5,30.82,NE,45,0.0,0.0,50,0.00,,,0.00,WeatherDisplay:10.36,2013-07-27 05:00:00,
2013-07-27 00:05:00,69.8,50.3,30.00,NE,45,0.0,0.0,50,0.00,,,0.00,WeatherDisplay:10.36,2013-07-27 05:05:00,
2013-07-27 00:10:00,69.4,50.5,30.00,NE,46,0.0,0.0,51,0.00,,,0.00,WeatherDisplay:10.36,2013-07-27 05:10:00,
2013-07-27 00:15:00,69.3,50.4,30.00,NE,46,0.0,0.0,51,0.00,,,0.00,WeatherDisplay:10.36,2013-07-27 05:15:00,
2013-07-27 00:20:00,69.1,50.7,30.00,NE,45,0.0,0.0,52,0.00,,,0.00,WeatherDisplay:10.36,2013-07-27 05:20:00,
2013-07-27 00:25:00,68.9,51.1,30.00,NE,45,0.0,0.0,53,0.00,,,0.00,WeatherDisplay:10.36,2013-07-27 05:25:00,
2013-07-27 00:30:00,68.7,51.4,30.00,NE,45,0.0,0.0,54,0.00,,,0.00,WeatherDisplay:10.36,2013-07-27 05:30:00,
2013-07-27 00:35:00,68.5,51.2,30.00,NE,45,0.0,0.0,54,0.00,,,0.00,WeatherDisplay:10.36,2013-07-27 05:35:00,
2013-07-27 00:40:00,68.5,51.2,30.00,NE,44,0.0,0.0,54,0.00,,,0.00,WeatherDisplay:10.36,2013-07-27 05:40:00,
2013-07-27 00:45:00,68.2,51.4,30.00,NE,46,0.0,0.0,55,0.00,,,0.00,WeatherDisplay:10.36,2013-07-27 05:45:00,
2013-07-27 00:50:00,68.0,51.2,30.00,NE,45,0.0,0.0,55,0.00,,,0.00,WeatherDisplay:10.36,2013-07-27 05:50:00,
2013-07-27 00:55:00,67.8,51.1,30.00,NE,46,0.0,0.0,55,0.00,,,0.00,WeatherDisplay:10.36,2013-07-27 05:55:00,
2013-07-27 01:00:00,67.6,51.4,30.00,NE,45,0.0,0.0,56,0.00,,,0.00,WeatherDisplay:10.36,2013-07-27 06:00:00,
2013-07-27 01:05:00,67.5,51.2,30.00,NE,45,0.0,0.0,56,0.00,,,0.00,WeatherDisplay:10.36,2013-07-27 06:05:00,
2013-07-27 01:10:00,67.3,51.5,30.00,NE,45,0.0,0.0,57,0.00,,,0.00,WeatherDisplay:10.36,2013-07-27 06:10:00,
2013-07-27 01:15:00,67.1,51.4,30.00,NE,45,0.0,0.0,57,0.00,,,0.00,WeatherDisplay:10.36,2013-07-27 06:15:00,
2013-07-27 01:20:00,66.9,51.7,29.97,NE,45,0.0,0.0,58,0.00,,,0.00,WeatherDisplay:10.36,2013-07-27 06:20:00,
2013-07-27 01:25:00,66.7,51.5,29.97,NE,45,0.0,0.0,58,0.00,,,0.00,WeatherDisplay:10.36,2013-07-27 06:25:00,
2013-07-27 01:30:00,66.6,51.8,29.97,NE,45,0.0,0.0,59,0.00,,,0.00,WeatherDisplay:10.36,2013-07-27 06:30:00,
2013-07-27 01:35:00,66.4,51.6,29.97,NE,45,0.0,0.0,59,0.00,,,0.00,WeatherDisplay:10.36,2013-07-27 06:35:00,
2013-07-27 01:40:00,66.2,51.4,29.97,NE,45,0.0,0.0,59,0.00,,,0.00,WeatherDisplay:10.36,2013-07-27 06:40:00,
2013-07-27 01:45:00,66.2,51.4,29.97,NE,45,0.0,0.0,59,0.00,,,0.00,WeatherDisplay:10.36,2013-07-27 06:45:00,
2013-07-27 01:50:00,66.0,51.7,29.97,NE,46,0.0,0.0,60,0.00,,,0.00,WeatherDisplay:10.36,2013-07-27 06:50:00,
2013-07-27 01:55:00,65.8,51.6,29.97,NE,45,0.0,0.0,60,0.00,,,0.00,WeatherDisplay:10.36,2013-07-27 06:55:00,
2013-07-27 02:00:00,65.7,51.4,29.97,NE,45,0.0,0.0,60,0.00,,,0.00,WeatherDisplay:10.36,2013-07-27 07:00:00,
2013-07-27 02:05:00,65.7,51.4,29.97,NE,45,0.0,0.0,60,0.00,,,0.00,WeatherDisplay:10.36,2013-07-27 07:05:00,
2013-07-27 02:10:00,65.5,51.7,29.97,NE,45,0.0,0.0,61,0.00,,,0.00,WeatherDisplay:10.36,2013-07-27 07:10:00,
2013-07-27 02:15:00,65.3,51.5,29.97,NE,46,0.0,0.0,61,0.00,,,0.00,WeatherDisplay:10.36,2013-07-27 07:15:00,
2013-07-27 02:20:00,65.1,51.8,29.97,NE,45,0.0,0.0,62,0.00,,,0.00,WeatherDisplay:10.36,2013-07-27 07:20:00,
2013-07-27 02:25:00,65.1,51.8,29.97,NE,45,0.0,0.0,62,0.00,,,0.00,WeatherDisplay:10.36,2013-07-27 07:25:00,
2013-07-27 02:30:00,64.9,51.6,29.97,NE,45,0.0,0.0,62,0.00,,,0.00,WeatherDisplay:10.36,2013-07-27 07:30:00,
2013-07-27 02:35:00,64.8,51.9,29.97,NE,46,0.0,0.0,63,0.00,,,0.00,WeatherDisplay:10.36,2013-07-27 07:35:00,
2013-07-27 02:40:00,64.8,51.9,29.97,NE,45,0.0,0.0,63,0.00,,,0.00,WeatherDisplay:10.36,2013-07-27 07:40:00,
2013-07-27 02:45:00,64.6,51.7,29.97,NE,45,0.0,0.0,63,0.00,,,0.00,WeatherDisplay:10.36,2013-07-27 07:45:00,
2013-07-27 02:50:00,64.4,52.0,29.97,NE,46,3.6,0.0,64,0.00,,,0.00,WeatherDisplay:10.36,2013-07-27 07:50:00,
2013-07-27 02:55:00,64.4,52.0,29.97,NE,46,0.0,0.0,64,0.00,,,0.00,WeatherDisplay:10.36,2013-07-27 07:55:00,
2013-07-27 03:00:00,64.4,52.0,29.97,NE,46,0.0,0.0,64,0.00,,,0.00,WeatherDisplay:10.36,2013-07-27 08:00:00,
2013-07-27 03:05:00,64.4,52.0,29.97,NE,46,0.0,0.0,64,0.00,,,0.00,WeatherDisplay:10.36,2013-07-27 08:05:00,
2013-07-27 03:10:00,64.4,52.0,29.97,NE,44,0.0,0.0,64,0.00,,,0.00,WeatherDisplay:10.36,2013-07-27 08:10:00,
2013-07-27 03:15:00,64.4,52.0,29.97,NE,45,0.0,0.0,64,0.00,,,0.00,WeatherDisplay:10.36,2013-07-27 08:15:00,
2013-07-27 03:20:00,64.4,51.5,29.97,NE,46,0.0,0.0,63,0.00,,,0.00,WeatherDisplay:10.36,2013-07-27 08:20:00,
2013-07-27 03:25:00,64.2,51.4,29.97,NE,46,0.0,0.0,63,0.00,,,0.00,WeatherDisplay:10.36,2013-07-27 08:25:00,
2013-07-27 03:30:00,64.2,51.4,29.97,NE,45,0.0,0.0,63,0.00,,,0.00,WeatherDisplay:10.36,2013-07-27 08:30:00,
2013-07-27 03:35:00,64.2,51.4,29.97,NE,47,0.0,0.0,63,0.00,,,0.00,WeatherDisplay:10.36,2013-07-27 08:35:00,
2013-07-27 03:40:00,64.0,51.2,29.97,NE,46,0.0,0.0,63,0.00,,,0.00,WeatherDisplay:10.36,2013-07-27 08:40:00,
2013-07-27 03:45:00,63.9,51.0,29.97,NE,45,3.5,0.0,63,0.00,,,0.00,WeatherDisplay:10.36,2013-07-27 08:45:00,
2013-07-27 03:50:00,63.7,50.8,29.97,NE,46,0.0,0.0,63,0.00,,,0.00,WeatherDisplay:10.36,2013-07-27 08:50:00,
2013-07-27 03:55:00,63.3,50.9,29.97,NE,46,3.5,0.0,64,0.00,,,0.00,WeatherDisplay:10.36,2013-07-27 08:55:00,
2013-07-27 04:00:00,63.3,50.9,29.97,NE,46,0.0,0.0,64,0.00,,,0.00,WeatherDisplay:10.36,2013-07-27 09:00:00,
2013-07-27 04:05:00,63.1,50.8,29.97,West,262,0.0,0.0,64,0.00,,,0.00,WeatherDisplay:10.36,2013-07-27 09:05:00,
2013-07-27 04:10:00,63.1,50.8,29.97,North,351,0.0,0.0,64,0.00,,,0.00,WeatherDisplay:10.36,2013-07-27 09:10:00,
2013-07-27 04:15:00,63.1,50.8,29.97,North,351,0.0,0.0,64,0.00,,,0.00,WeatherDisplay:10.36,2013-07-27 09:15:00,
2013-07-27 04:20:00,63.0,50.6,30.79,NE,45,3.1,0.0,64,0.00,,,0.00,WeatherDisplay:10.36,2013-07-27 09:20:00,
2013-07-27 04:25:00,62.8,50.4,30.79,NE,44,0.0,0.0,64,0.00,,,0.00,WeatherDisplay:10.36,2013-07-27 09:25:00,
2013-07-27 04:30:00,62.6,50.7,30.79,NE,45,0.0,0.0,65,0.00,,,0.00,WeatherDisplay:10.36,2013-07-27 09:30:00,
2013-07-27 04:35:00,62.6,50.7,29.97,WSW,253,0.0,0.0,65,0.00,,,0.00,WeatherDisplay:10.36,2013-07-27 09:35:00,
2013-07-27 04:40:00,62.4,50.5,29.97,WSW,252,0.0,0.0,65,0.00,,,0.00,WeatherDisplay:10.36,2013-07-27 09:40:00,
2013-07-27 04:45:00,62.4,50.5,29.97,NE,47,3.5,0.0,65,0.00,,,0.00,WeatherDisplay:10.36,2013-07-27 09:45:00,
2013-07-27 04:50:00,62.2,50.3,29.97,NE,47,0.0,0.0,65,0.00,,,0.00,WeatherDisplay:10.36,2013-07-27 09:50:00,
2013-07-27 04:55:00,62.2,50.3,29.97,NE,46,0.0,0.0,65,0.00,,,0.00,WeatherDisplay:10.36,2013-07-27 09:55:00,
2013-07-27 05:00:00,62.1,50.6,29.97,NE,46,0.0,0.0,66,0.00,,,0.00,WeatherDisplay:10.36,2013-07-27 10:00:00,
2013-07-27 05:04:00,61.9,50.4,29.97,NE,46,0.0,0.0,66,0.00,,,0.00,WeatherDisplay:10.36,2013-07-27 10:04:00,
2013-07-27 05:05:00,61.9,50.4,29.97,NE,47,0.0,0.0,66,0.00,,,0.00,WeatherDisplay:10.36,2013-07-27 10:05:00,
2013-07-27 05:10:00,61.9,50.4,29.97,NE,46,0.0,0.0,66,0.00,,,0.00,WeatherDisplay:10.36,2013-07-27 10:10:00,
2013-07-27 05:17:00,61.7,50.2,30.00,NE,46,5.8,0.0,66,0.00,,,0.00,WeatherDisplay:10.36,2013-07-27 10:17:00,
2013-07-27 05:22:00,61.7,50.6,30.00,NE,46,0.0,2.7,67,0.00,,,0.00,WeatherDisplay:10.36,2013-07-27 10:22:00,
2013-07-27 05:27:00,61.5,50.5,30.00,NE,46,0.0,0.0,67,0.00,,,0.00,WeatherDisplay:10.36,2013-07-27 10:27:00,
2013-07-27 05:32:00,61.3,50.3,30.00,NE,39,2.3,0.0,67,0.00,,,0.00,WeatherDisplay:10.36,2013-07-27 10:32:00,
2013-07-27 05:37:00,61.3,50.7,30.00,North,351,0.0,0.0,68,0.00,,,0.00,WeatherDisplay:10.36,2013-07-27 10:37:00,
2013-07-27 05:42:00,61.2,50.5,30.00,NE,47,0.0,0.0,68,0.00,,,0.00,WeatherDisplay:10.36,2013-07-27 10:42:00,
2013-07-27 05:47:00,61.0,50.3,30.00,NE,47,0.0,0.0,68,0.00,,,0.00,WeatherDisplay:10.36,2013-07-27 10:47:00,
2013-07-27 05:52:00,60.8,50.6,30.00,NE,46,0.0,0.0,69,0.00,,,0.00,WeatherDisplay:10.36,2013-07-27 10:52:00,
2013-07-27 05:57:00,60.6,50.4,30.00,NNE,28,0.0,0.0,69,0.00,,,0.00,WeatherDisplay:10.36,2013-07-27 10:57:00,
2013-07-27 06:02:00,60.6,50.4,30.00,NE,45,5.8,0.0,69,0.00,,,0.00,WeatherDisplay:10.36,2013-07-27 11:02:00,
2013-07-27 06:07:00,60.6,50.4,30.00,NE,46,0.0,0.0,69,0.00,,,0.00,WeatherDisplay:10.36,2013-07-27 11:07:00,
2013-07-27 06:12:00,60.6,50.8,30.00,North,351,0.0,0.0,70,0.00,,,0.00,WeatherDisplay:10.36,2013-07-27 11:12:00,
2013-07-27 06:17:00,60.6,50.8,30.00,NE,47,0.0,0.0,70,0.00,,,0.00,WeatherDisplay:10.36,2013-07-27 11:17:00,
2013-07-27 06:22:00,60.4,50.6,30.00,North,351,0.0,0.0,70,0.00,,,0.00,WeatherDisplay:10.36,2013-07-27 11:22:00,
2013-07-27 06:27:00,60.4,50.6,30.00,NE,46,0.0,0.0,70,0.00,,,0.00,WeatherDisplay:10.36,2013-07-27 11:27:00,
2013-07-27 06:32:00,60.4,50.6,30.00,NE,47,4.0,4.0,70,0.00,,,0.00,WeatherDisplay:10.36,2013-07-27 11:32:00,
2013-07-27 06:37:00,60.6,51.2,30.00,North,351,0.0,0.0,71,0.00,,,0.00,WeatherDisplay:10.36,2013-07-27 11:37:00,
2013-07-27 06:42:00,60.6,51.2,30.00,North,351,0.0,0.0,71,0.00,,,0.00,WeatherDisplay:10.36,2013-07-27 11:42:00,
2013-07-27 06:47:00,60.6,51.2,30.82,North,351,0.0,0.0,71,0.00,,,0.00,WeatherDisplay:10.36,2013-07-27 11:47:00,
2013-07-27 06:52:00,60.6,51.2,30.82,NE,45,0.0,0.0,71,0.00,,,0.00,WeatherDisplay:10.36,2013-07-27 11:52:00,
2013-07-27 06:57:00,60.8,51.3,30.82,NE,45,0.0,0.0,71,0.00,,,0.00,WeatherDisplay:10.36,2013-07-27 11:57:00,
2013-07-27 07:02:00,61.0,51.5,30.00,NE,46,3.6,0.0,71,0.00,,,0.00,WeatherDisplay:10.36,2013-07-27 12:02:00,
2013-07-27 07:07:00,61.2,51.7,30.00,West,261,3.6,0.0,71,0.00,,,0.00,WeatherDisplay:10.36,2013-07-27 12:07:00,
2013-07-27 07:12:00,61.3,51.9,30.00,North,351,7.8,7.8,71,0.00,,,0.00,WeatherDisplay:10.36,2013-07-27 12:12:00,
2013-07-27 07:17:00,61.2,51.7,30.00,NNE,28,0.0,0.0,71,0.00,,,0.00,WeatherDisplay:10.36,2013-07-27 12:17:00,
2013-07-27 07:22:00,61.3,51.9,30.00,NNE,27,0.0,0.0,71,0.00,,,0.00,WeatherDisplay:10.36,2013-07-27 12:22:00,
2013-07-27 07:27:00,61.7,52.2,30.00,North,351,4.6,0.0,71,0.00,,,0.00,WeatherDisplay:10.36,2013-07-27 12:27:00,
2013-07-27 07:32:00,61.9,52.4,30.82,North,351,0.0,0.0,71,0.00,,,0.00,WeatherDisplay:10.36,2013-07-27 12:32:00,
2013-07-27 07:37:00,62.2,52.3,30.82,North,351,0.0,2.7,70,0.00,,,0.00,WeatherDisplay:10.36,2013-07-27 12:37:00,
2013-07-27 07:42:00,62.2,52.3,30.82,NE,46,3.6,0.0,70,0.00,,,0.00,WeatherDisplay:10.36,2013-07-27 12:42:00,
2013-07-27 07:47:00,62.4,52.5,30.74,North,351,0.0,0.0,70,0.00,,,0.00,WeatherDisplay:10.36,2013-07-27 12:47:00,
2013-07-27 07:52:00,62.4,52.1,30.74,NE,45,0.0,4.0,69,0.00,,,0.00,WeatherDisplay:10.36,2013-07-27 12:52:00,
2013-07-27 07:57:00,62.6,52.3,30.74,North,351,5.8,5.8,69,0.00,,,0.00,WeatherDisplay:10.36,2013-07-27 12:57:00,
2013-07-27 08:02:00,62.6,51.9,30.82,North,351,0.0,0.0,68,0.00,,,0.00,WeatherDisplay:10.36,2013-07-27 13:02:00,
2013-07-27 08:07:00,62.6,51.9,30.82,NE,44,6.3,0.0,68,0.00,,,0.00,WeatherDisplay:10.36,2013-07-27 13:07:00,
2013-07-27 08:12:00,63.0,52.2,30.82,NE,45,0.0,0.0,68,0.00,,,0.00,WeatherDisplay:10.36,2013-07-27 13:12:00,
2013-07-27 08:17:00,63.1,52.8,30.03,North,351,4.0,0.0,69,0.00,,,0.00,WeatherDisplay:10.36,2013-07-27 13:17:00,
2013-07-27 08:22:00,63.5,52.7,30.03,North,351,2.7,2.7,68,0.00,,,0.00,WeatherDisplay:10.36,2013-07-27 13:22:00,
2013-07-27 08:27:00,63.7,52.9,30.03,NE,45,5.8,0.0,68,0.00,,,0.00,WeatherDisplay:10.36,2013-07-27 13:27:00,
2013-07-27 08:32:00,64.2,53.4,30.03,NE,46,0.0,0.0,68,0.00,,,0.00,WeatherDisplay:10.36,2013-07-27 13:32:00,
2013-07-27 08:37:00,64.2,52.2,30.03,NE,46,0.0,0.0,65,0.00,,,0.00,WeatherDisplay:10.36,2013-07-27 13:37:00,
2013-07-27 08:42:00,64.4,52.4,30.03,NE,46,0.0,0.0,65,0.00,,,0.00,WeatherDisplay:10.36,2013-07-27 13:42:00,
2013-07-27 08:47:00,64.4,51.5,30.03,NE,42,0.0,0.0,63,0.00,,,0.00,WeatherDisplay:10.36,2013-07-27 13:47:00,
2013-07-27 08:52:00,64.8,51.4,30.03,North,351,0.0,0.0,62,0.00,,,0.00,WeatherDisplay:10.36,2013-07-27 13:52:00,
2013-07-27 08:57:00,64.9,51.2,30.03,North,351,0.0,0.0,61,0.00,,,0.00,WeatherDisplay:10.36,2013-07-27 13:57:00,
2013-07-27 09:02:00,65.1,51.3,30.03,NE,45,0.0,0.0,61,0.00,,,0.00,WeatherDisplay:10.36,2013-07-27 14:02:00,
2013-07-27 09:07:00,65.5,51.7,30.03,NE,44,0.0,0.0,61,0.00,,,0.00,WeatherDisplay:10.36,2013-07-27 14:07:00,
2013-07-27 09:12:00,65.8,52.0,30.03,NE,46,0.0,2.7,61,0.00,,,0.00,WeatherDisplay:10.36,2013-07-27 14:12:00,
2013-07-27 09:17:00,66.2,51.9,30.03,NE,46,0.0,0.0,60,0.00,,,0.00,WeatherDisplay:10.36,2013-07-27 14:17:00,
2013-07-27 09:22:00,66.4,51.2,30.03,NE,46,3.6,0.0,58,0.00,,,0.00,WeatherDisplay:10.36,2013-07-27 14:22:00,
2013-07-27 09:28:00,66.4,48.7,30.03,NE,46,4.0,4.0,53,0.00,,,0.00,WeatherDisplay:10.36,2013-07-27 14:28:00,
2013-07-27 09:33:00,66.4,48.2,30.85,NE,44,4.6,4.6,52,0.00,,,0.00,WeatherDisplay:10.36,2013-07-27 14:33:00,
2013-07-27 09:39:00,66.7,48.0,30.85,NE,45,4.9,4.9,51,0.00,,,0.00,WeatherDisplay:10.36,2013-07-27 14:39:00,
2013-07-27 09:44:00,66.9,48.2,30.85,NE,46,0.0,0.0,51,0.00,,,0.00,WeatherDisplay:10.36,2013-07-27 14:44:00,
2013-07-27 09:49:00,67.1,47.3,30.03,NE,44,10.4,10.4,49,0.00,,,0.00,WeatherDisplay:10.36,2013-07-27 14:49:00,
2013-07-27 09:54:00,67.3,48.0,30.03,NNE,30,6.3,6.3,50,0.00,,,0.00,WeatherDisplay:10.36,2013-07-27 14:54:00,
2013-07-27 09:59:00,67.8,48.0,30.03,NE,36,4.6,0.0,49,0.00,,,0.00,WeatherDisplay:10.36,2013-07-27 14:59:00,
2013-07-27 10:04:00,68.2,48.8,30.03,NE,44,3.5,0.0,50,0.00,,,0.00,WeatherDisplay:10.36,2013-07-27 15:04:00,
2013-07-27 10:09:00,68.5,48.1,30.03,NE,45,2.7,0.0,48,0.00,,,0.00,WeatherDisplay:10.36,2013-07-27 15:09:00,
2013-07-27 10:14:00,68.9,47.8,30.03,NE,46,6.9,6.9,47,0.00,,,0.00,WeatherDisplay:10.36,2013-07-27 15:14:00,
2013-07-27 10:19:00,68.9,46.7,30.03,NE,40,4.6,4.6,45,0.00,,,0.00,WeatherDisplay:10.36,2013-07-27 15:19:00,
2013-07-27 10:24:00,69.1,46.8,30.03,NE,45,5.8,0.0,45,0.00,,,0.00,WeatherDisplay:10.36,2013-07-27 15:24:00,
2013-07-27 10:29:00,69.1,46.2,30.03,NNE,33,9.2,9.2,44,0.00,,,0.00,WeatherDisplay:10.36,2013-07-27 15:29:00,
2013-07-27 10:34:00,69.3,45.8,30.03,NE,44,4.9,4.9,43,0.00,,,0.00,WeatherDisplay:10.36,2013-07-27 15:34:00,
2013-07-27 10:39:00,69.4,46.0,30.03,North,351,6.7,6.7,43,0.00,,,0.00,WeatherDisplay:10.36,2013-07-27 15:39:00,
2013-07-27 10:44:00,69.8,46.3,30.03,NE,45,6.3,6.3,43,0.00,,,0.00,WeatherDisplay:10.36,2013-07-27 15:44:00,
2013-07-27 10:49:00,70.0,45.2,30.91,NE,45,6.3,6.3,41,0.00,,,0.00,WeatherDisplay:10.36,2013-07-27 15:49:00,
2013-07-27 10:54:00,70.0,44.5,30.91,NE,45,3.1,0.0,40,0.00,,,0.00,WeatherDisplay:10.36,2013-07-27 15:54:00,
2013-07-27 10:59:00,70.2,45.4,30.91,North,351,8.3,8.3,41,0.00,,,0.00,WeatherDisplay:10.36,2013-07-27 15:59:00,
2013-07-27 11:04:00,70.2,41.9,30.82,NE,46,5.8,5.8,36,0.00,,,0.00,WeatherDisplay:10.36,2013-07-27 16:04:00,
2013-07-27 11:09:00,70.2,42.7,30.82,NE,44,4.6,4.6,37,0.00,,,0.00,WeatherDisplay:10.36,2013-07-27 16:09:00,
2013-07-27 11:14:00,70.3,42.1,30.82,NE,45,6.3,6.3,36,0.00,,,0.00,WeatherDisplay:10.36,2013-07-27 16:14:00,
2013-07-27 11:19:00,70.7,42.4,30.03,NE,46,4.6,4.6,36,0.00,,,0.00,WeatherDisplay:10.36,2013-07-27 16:19:00,
2013-07-27 11:24:00,71.1,42.0,30.03,NE,44,6.3,6.3,35,0.00,,,0.00,WeatherDisplay:10.36,2013-07-27 16:24:00,
2013-07-27 11:29:00,71.1,41.3,30.03,NE,45,6.9,6.9,34,0.00,,,0.00,WeatherDisplay:10.36,2013-07-27 16:29:00,
2013-07-27 11:34:00,71.1,40.5,30.03,North,351,5.8,5.8,33,0.00,,,0.00,WeatherDisplay:10.36,2013-07-27 16:34:00,
2013-07-27 11:39:00,71.1,40.5,30.03,NE,45,4.9,4.9,33,0.00,,,0.00,WeatherDisplay:10.36,2013-07-27 16:39:00,
2013-07-27 11:44:00,71.2,39.9,30.03,NE,44,12.7,12.7,32,0.00,,,0.00,WeatherDisplay:10.36,2013-07-27 16:44:00,
2013-07-27 11:49:00,71.1,39.7,30.82,North,351,9.2,9.2,32,0.00,,,0.00,WeatherDisplay:10.36,2013-07-27 16:49:00,
2013-07-27 11:54:00,70.7,40.2,30.82,NE,45,4.9,4.9,33,0.00,,,0.00,WeatherDisplay:10.36,2013-07-27 16:54:00,
2013-07-27 11:59:00,71.1,39.7,30.82,NE,45,8.3,8.3,32,0.00,,,0.00,WeatherDisplay:10.36,2013-07-27 16:59:00,
2013-07-27 12:04:00,71.4,40.0,30.00,NE,45,11.6,11.6,32,0.00,,,0.00,WeatherDisplay:10.36,2013-07-27 17:04:00,
2013-07-27 12:09:00,71.8,40.3,30.00,North,351,9.2,9.2,32,0.00,,,0.00,WeatherDisplay:10.36,2013-07-27 17:09:00,
2013-07-27 12:14:00,71.8,40.3,30.00,NE,46,6.9,6.9,32,0.00,,,0.00,WeatherDisplay:10.36,2013-07-27 17:14:00,
2013-07-27 12:19:00,72.0,39.7,30.00,West,259,4.5,4.5,31,0.00,,,0.00,WeatherDisplay:10.36,2013-07-27 17:19:00,
2013-07-27 12:24:00,72.3,40.8,30.00,North,351,6.9,6.9,32,0.00,,,0.00,WeatherDisplay:10.36,2013-07-27 17:24:00,
2013-07-27 12:29:00,72.3,38.3,30.00,NE,45,9.2,9.2,29,0.00,,,0.00,WeatherDisplay:10.36,2013-07-27 17:29:00,
2013-07-27 12:34:00,72.3,39.1,30.00,NE,44,9.2,9.2,30,0.00,,,0.00,WeatherDisplay:10.36,2013-07-27 17:34:00,
2013-07-27 12:39:00,72.5,38.4,30.00,NE,44,5.8,5.8,29,0.00,,,0.00,WeatherDisplay:10.36,2013-07-27 17:39:00,
2013-07-27 12:44:00,72.7,39.4,30.00,NE,46,3.6,3.6,30,0.00,,,0.00,WeatherDisplay:10.36,2013-07-27 17:44:00,
2013-07-27 12:49:00,73.0,40.6,30.00,NE,45,4.0,0.0,31,0.00,,,0.00,WeatherDisplay:10.36,2013-07-27 17:49:00,
2013-07-27 12:54:00,73.0,38.0,30.00,North,351,10.4,10.4,28,0.00,,,0.00,WeatherDisplay:10.36,2013-07-27 17:54:00,
2013-07-27 12:59:00,72.9,39.6,30.00,NNE,29,8.3,8.3,30,0.00,,,0.00,WeatherDisplay:10.36,2013-07-27 17:59:00,
2013-07-27 13:04:00,72.7,40.3,30.82,North,351,4.6,4.6,31,0.00,,,0.00,WeatherDisplay:10.36,2013-07-27 18:04:00,
2013-07-27 13:09:00,73.0,39.8,30.82,NE,45,5.8,5.8,30,0.00,,,0.00,WeatherDisplay:10.36,2013-07-27 18:09:00,
2013-07-27 13:14:00,73.4,39.2,30.82,North,351,8.3,8.3,29,0.00,,,0.00,WeatherDisplay:10.36,2013-07-27 18:14:00,
2013-07-27 13:19:00,73.2,38.1,30.00,NE,45,6.3,6.3,28,0.00,,,0.00,WeatherDisplay:10.36,2013-07-27 18:19:00,
2013-07-27 13:24:00,73.2,39.9,30.00,NE,43,5.8,5.8,30,0.00,,,0.00,WeatherDisplay:10.36,2013-07-27 18:24:00,
2013-07-27 13:29:00,73.8,39.5,30.00,NE,44,9.2,9.2,29,0.00,,,0.00,WeatherDisplay:10.36,2013-07-27 18:29:00,
2013-07-27 13:34:00,73.4,38.3,30.00,NE,45,3.5,0.0,28,0.00,,,0.00,WeatherDisplay:10.36,2013-07-27 18:34:00,
2013-07-27 13:39:00,73.6,39.4,30.00,NE,44,6.3,6.3,29,0.00,,,0.00,WeatherDisplay:10.36,2013-07-27 18:39:00,
2013-07-27 13:44:00,73.8,36.7,30.00,NE,43,9.2,9.2,26,0.00,,,0.00,WeatherDisplay:10.36,2013-07-27 18:44:00,
2013-07-27 13:49:00,73.8,37.7,30.00,NE,44,11.5,11.5,27,0.00,,,0.00,WeatherDisplay:10.36,2013-07-27 18:49:00,
2013-07-27 13:54:00,73.2,37.2,30.00,North,351,5.8,5.8,27,0.00,,,0.00,WeatherDisplay:10.36,2013-07-27 18:54:00,
2013-07-27 13:59:00,73.0,38.0,30.00,NNE,30,6.3,6.3,28,0.00,,,0.00,WeatherDisplay:10.36,2013-07-27 18:59:00,
2013-07-27 14:04:00,73.6,38.5,30.00,NE,44,5.8,0.0,28,0.00,,,0.00,WeatherDisplay:10.36,2013-07-27 19:04:00,
2013-07-27 14:09:00,74.1,38.9,30.00,NE,44,6.9,6.9,28,0.00,,,0.00,WeatherDisplay:10.36,2013-07-27 19:09:00,
2013-07-27 14:14:00,74.1,40.7,30.00,North,351,6.3,6.3,30,0.00,,,0.00,WeatherDisplay:10.36,2013-07-27 19:14:00,
2013-07-27 14:19:00,74.1,37.0,30.00,NE,46,8.1,8.1,26,0.00,,,0.00,WeatherDisplay:10.36,2013-07-27 19:19:00,
2013-07-27 14:24:00,74.1,38.0,30.00,NE,45,6.7,6.7,27,0.00,,,0.00,WeatherDisplay:10.36,2013-07-27 19:24:00,
2013-07-27 14:29:00,73.6,35.6,30.00,NE,44,6.9,6.9,25,0.00,,,0.00,WeatherDisplay:10.36,2013-07-27 19:29:00,
2013-07-27 14:34:00,73.4,36.4,30.00,NE,45,9.2,9.2,26,0.00,,,0.00,WeatherDisplay:10.36,2013-07-27 19:34:00,
2013-07-27 14:39:00,73.8,37.7,30.00,NE,44,5.8,5.8,27,0.00,,,0.00,WeatherDisplay:10.36,2013-07-27 19:39:00,
2013-07-27 14:44:00,74.3,39.1,30.00,NE,44,4.0,4.0,28,0.00,,,0.00,WeatherDisplay:10.36,2013-07-27 19:44:00,
2013-07-27 14:49:00,74.3,36.2,29.97,NNE,27,11.6,11.6,25,0.00,,,0.00,WeatherDisplay:10.36,2013-07-27 19:49:00,
2013-07-27 14:51:00,74.1,37.0,29.97,NE,39,0.0,2.7,26,0.00,,,0.00,WeatherDisplay:10.36,2013-07-27 19:51:00,
2013-07-27 14:56:00,73.9,36.9,29.97,NE,44,5.4,5.4,26,0.00,,,0.00,WeatherDisplay:10.36,2013-07-27 19:56:00,
2013-07-27 15:01:00,73.6,36.6,29.97,NE,43,5.8,0.0,26,0.00,,,0.00,WeatherDisplay:10.36,2013-07-27 20:01:00,
2013-07-27 15:07:00,73.4,37.4,29.97,NNE,33,5.8,5.8,27,0.00,,,0.00,WeatherDisplay:10.36,2013-07-27 20:07:00,
2013-07-27 15:12:00,73.9,35.9,29.97,NE,45,4.5,4.5,25,0.00,,,0.00,WeatherDisplay:10.36,2013-07-27 20:12:00,
2013-07-27 15:17:00,74.1,36.0,29.97,NE,37,4.0,4.0,25,0.00,,,0.00,WeatherDisplay:10.36,2013-07-27 20:17:00,
2013-07-27 15:22:00,74.3,35.2,29.97,NE,45,4.0,0.0,24,0.00,,,0.00,WeatherDisplay:10.36,2013-07-27 20:22:00,
2013-07-27 15:27:00,74.7,36.5,29.97,North,351,8.3,8.3,25,0.00,,,0.00,WeatherDisplay:10.36,2013-07-27 20:27:00,
2013-07-27 15:32:00,74.7,36.5,29.97,North,351,7.4,7.4,25,0.00,,,0.00,WeatherDisplay:10.36,2013-07-27 20:32:00,
2013-07-27 15:37:00,74.5,36.3,29.97,NE,45,4.0,4.0,25,0.00,,,0.00,WeatherDisplay:10.36,2013-07-27 20:37:00,
2013-07-27 15:42:00,74.3,36.2,29.97,NE,42,4.6,4.6,25,0.00,,,0.00,WeatherDisplay:10.36,2013-07-27 20:42:00,
2013-07-27 15:47:00,74.5,36.3,29.97,North,351,5.4,5.4,25,0.00,,,0.00,WeatherDisplay:10.36,2013-07-27 20:47:00,
2013-07-27 15:52:00,74.7,35.5,29.97,NNE,27,4.6,4.6,24,0.00,,,0.00,WeatherDisplay:10.36,2013-07-27 20:52:00,
2013-07-27 15:57:00,74.3,36.2,29.97,North,351,8.7,8.7,25,0.00,,,0.00,WeatherDisplay:10.36,2013-07-27 20:57:00,
2013-07-27 16:02:00,73.2,35.3,29.97,North,351,5.8,5.8,25,0.00,,,0.00,WeatherDisplay:10.36,2013-07-27 21:02:00,
2013-07-27 16:07:00,73.4,38.3,29.97,NE,44,6.3,6.3,28,0.00,,,0.00,WeatherDisplay:10.36,2013-07-27 21:07:00,
2013-07-27 16:12:00,73.8,35.7,29.97,North,351,9.6,9.6,25,0.00,,,0.00,WeatherDisplay:10.36,2013-07-27 21:12:00,
2013-07-27 16:17:00,73.9,38.8,29.97,NE,45,5.4,5.4,28,0.00,,,0.00,WeatherDisplay:10.36,2013-07-27 21:17:00,
2013-07-27 16:22:00,74.3,38.1,29.97,NE,36,0.0,0.0,27,0.00,,,0.00,WeatherDisplay:10.36,2013-07-27 21:22:00,
2013-07-27 16:27:00,74.8,37.6,29.97,NE,44,4.5,4.5,26,0.00,,,0.00,WeatherDisplay:10.36,2013-07-27 21:27:00,
2013-07-27 16:32:00,74.8,36.6,29.97,NE,43,0.0,2.7,25,0.00,,,0.00,WeatherDisplay:10.36,2013-07-27 21:32:00,
2013-07-27 16:37:00,74.7,36.5,29.97,NNE,28,8.3,8.3,25,0.00,,,0.00,WeatherDisplay:10.36,2013-07-27 21:37:00,
2013-07-27 16:42:00,74.1,37.0,29.97,NNE,32,5.4,6.7,26,0.00,,,0.00,WeatherDisplay:10.36,2013-07-27 21:42:00,
2013-07-27 16:47:00,73.6,37.5,29.97,NE,45,0.0,0.0,27,0.00,,,0.00,WeatherDisplay:10.36,2013-07-27 21:47:00,
2013-07-27 16:52:00,73.4,38.3,29.97,NE,43,4.0,0.0,28,0.00,,,0.00,WeatherDisplay:10.36,2013-07-27 21:52:00,
2013-07-27 16:57:00,73.0,37.1,29.97,NNE,27,0.0,0.0,27,0.00,,,0.00,WeatherDisplay:10.36,2013-07-27 21:57:00,
2013-07-27 17:02:00,73.0,39.8,29.97,NE,44,4.9,4.9,30,0.00,,,0.00,WeatherDisplay:10.36,2013-07-27 22:02:00,
2013-07-27 17:07:00,73.6,37.5,29.97,NE,45,5.8,0.0,27,0.00,,,0.00,WeatherDisplay:10.36,2013-07-27 22:07:00,
2013-07-27 17:12:00,73.8,36.7,29.97,North,351,9.2,9.2,26,0.00,,,0.00,WeatherDisplay:10.36,2013-07-27 22:12:00,
2013-07-27 17:17:00,73.6,36.6,30.68,NE,50,6.3,6.3,26,0.00,,,0.00,WeatherDisplay:10.36,2013-07-27 22:17:00,
2013-07-27 17:22:00,73.4,38.3,30.68,NE,45,3.6,3.6,28,0.00,,,0.00,WeatherDisplay:10.36,2013-07-27 22:22:00,
2013-07-27 17:23:00,73.4,38.3,30.68,NE,45,3.5,3.5,28,0.00,,,0.00,WeatherDisplay:10.36,2013-07-27 22:23:00,
2013-07-27 17:28:00,73.4,39.2,30.68,WSW,254,6.9,6.9,29,0.00,,,0.00,WeatherDisplay:10.36,2013-07-27 22:28:00,
2013-07-27 17:33:00,73.6,38.5,29.97,NE,45,0.0,0.0,28,0.00,,,0.00,WeatherDisplay:10.36,2013-07-27 22:33:00,
2013-07-27 17:38:00,73.9,38.8,29.97,North,351,7.4,7.4,28,0.00,,,0.00,WeatherDisplay:10.36,2013-07-27 22:38:00,
2013-07-27 17:43:00,73.8,37.7,29.97,NE,44,3.6,3.6,27,0.00,,,0.00,WeatherDisplay:10.36,2013-07-27 22:43:00,
2013-07-27 17:48:00,73.6,37.5,30.76,NNE,27,8.3,0.0,27,0.00,,,0.00,WeatherDisplay:10.36,2013-07-27 22:48:00,
2013-07-27 17:53:00,73.2,37.2,30.76,North,351,4.6,0.0,27,0.00,,,0.00,WeatherDisplay:10.36,2013-07-27 22:53:00,
2013-07-27 17:58:00,72.7,38.6,30.76,North,351,5.4,5.4,29,0.00,,,0.00,WeatherDisplay:10.36,2013-07-27 22:58:00,
2013-07-27 18:03:00,72.7,40.3,29.97,NE,45,4.0,0.0,31,0.00,,,0.00,WeatherDisplay:10.36,2013-07-27 23:03:00,
2013-07-27 18:08:00,72.9,40.4,29.97,North,351,4.0,0.0,31,0.00,,,0.00,WeatherDisplay:10.36,2013-07-27 23:08:00,
2013-07-27 18:13:00,72.9,37.8,29.97,North,351,11.5,11.5,28,0.00,,,0.00,WeatherDisplay:10.36,2013-07-27 23:13:00,
2013-07-27 18:18:00,72.7,39.4,29.97,NE,43,4.0,4.0,30,0.00,,,0.00,WeatherDisplay:10.36,2013-07-27 23:18:00,
2013-07-27 18:23:00,72.5,40.1,29.97,North,351,6.9,6.9,31,0.00,,,0.00,WeatherDisplay:10.36,2013-07-27 23:23:00,
2013-07-27 18:28:00,72.1,39.8,29.97,North,351,6.9,6.9,31,0.00,,,0.00,WeatherDisplay:10.36,2013-07-27 23:28:00,
2013-07-27 18:33:00,71.8,39.5,29.97,North,351,6.3,0.0,31,0.00,,,0.00,WeatherDisplay:10.36,2013-07-27 23:33:00,
2013-07-27 18:38:00,71.4,40.0,29.97,North,351,6.9,6.9,32,0.00,,,0.00,WeatherDisplay:10.36,2013-07-27 23:38:00,
2013-07-27 18:43:00,71.4,40.0,29.97,NE,45,5.8,5.8,32,0.00,,,0.00,WeatherDisplay:10.36,2013-07-27 23:43:00,
2013-07-27 18:48:00,71.6,40.2,29.97,NE,45,0.0,0.0,32,0.00,,,0.00,WeatherDisplay:10.36,2013-07-27 23:48:00,
2013-07-27 18:53:00,71.6,40.2,29.97,NE,44,0.0,0.0,32,0.00,,,0.00,WeatherDisplay:10.36,2013-07-27 23:53:00,
2013-07-27 18:58:00,71.6,40.2,29.97,NE,45,4.5,4.5,32,0.00,,,0.00,WeatherDisplay:10.36,2013-07-27 23:58:00,
2013-07-27 19:03:00,71.6,40.2,29.94,NE,44,0.0,0.0,32,0.00,,,0.00,WeatherDisplay:10.36,2013-07-28 00:03:00,
2013-07-27 19:08:00,71.4,40.0,29.94,WSW,251,4.9,4.9,32,0.00,,,0.00,WeatherDisplay:10.36,2013-07-28 00:08:00,
2013-07-27 19:13:00,71.2,39.9,29.94,NE,45,3.5,3.5,32,0.00,,,0.00,WeatherDisplay:10.36,2013-07-28 00:13:00,
2013-07-27 19:18:00,71.2,39.9,29.94,NE,45,5.8,5.8,32,0.00,,,0.00,WeatherDisplay:10.36,2013-07-28 00:18:00,
2013-07-27 19:23:00,70.9,39.5,29.94,NE,44,5.8,5.8,32,0.00,,,0.00,WeatherDisplay:10.36,2013-07-28 00:23:00,
2013-07-27 19:27:00,70.9,39.5,29.94,West,263,6.9,6.9,32,0.00,,,0.00,WeatherDisplay:10.36,2013-07-28 00:27:00,
2013-07-27 19:32:00,70.5,40.0,29.97,West,261,0.0,0.0,33,0.00,,,0.00,WeatherDisplay:10.36,2013-07-28 00:32:00,
2013-07-27 19:37:00,70.3,39.9,29.97,North,351,5.4,5.4,33,0.00,,,0.00,WeatherDisplay:10.36,2013-07-28 00:37:00,
2013-07-27 19:42:00,70.0,40.3,29.97,North,351,0.0,0.0,34,0.00,,,0.00,WeatherDisplay:10.36,2013-07-28 00:42:00,
2013-07-27 19:47:00,70.0,40.3,30.29,North,351,3.1,3.1,34,0.00,,,0.00,WeatherDisplay:10.36,2013-07-28 00:47:00,
2013-07-27 19:52:00,69.6,40.0,30.29,North,351,0.0,0.0,34,0.00,,,0.00,WeatherDisplay:10.36,2013-07-28 00:52:00,
2013-07-27 19:57:00,69.6,40.7,30.29,North,351,0.0,0.0,35,0.00,,,0.00,WeatherDisplay:10.36,2013-07-28 00:57:00,
2013-07-27 20:02:00,69.4,40.6,30.76,North,351,0.0,0.0,35,0.00,,,0.00,WeatherDisplay:10.36,2013-07-28 01:02:00,
2013-07-27 20:07:00,69.3,40.4,30.76,North,351,0.0,0.0,35,0.00,,,0.00,WeatherDisplay:10.36,2013-07-28 01:07:00,
2013-07-27 20:13:00,69.1,41.0,30.76,North,351,0.0,0.0,36,0.00,,,0.00,WeatherDisplay:10.36,2013-07-28 01:13:00,
2013-07-27 20:18:00,68.7,41.4,30.76,North,351,0.0,0.0,37,0.00,,,0.00,WeatherDisplay:10.36,2013-07-28 01:18:00,
2013-07-27 20:23:00,68.5,41.2,30.76,NE,44,0.0,0.0,37,0.00,,,0.00,WeatherDisplay:10.36,2013-07-28 01:23:00,
2013-07-27 20:28:00,68.4,41.1,30.76,NE,43,0.0,0.0,37,0.00,,,0.00,WeatherDisplay:10.36,2013-07-28 01:28:00,
2013-07-27 20:33:00,68.2,41.6,29.97,NE,44,0.0,0.0,38,0.00,,,0.00,WeatherDisplay:10.36,2013-07-28 01:33:00,
2013-07-27 20:38:00,68.0,41.4,29.97,NE,44,0.0,0.0,38,0.00,,,0.00,WeatherDisplay:10.36,2013-07-28 01:38:00,
2013-07-27 20:43:00,67.8,41.9,29.97,NE,44,0.0,0.0,39,0.00,,,0.00,WeatherDisplay:10.36,2013-07-28 01:43:00,
2013-07-27 20:48:00,67.6,41.8,29.97,NE,44,0.0,0.0,39,0.00,,,0.00,WeatherDisplay:10.36,2013-07-28 01:48:00,
2013-07-27 20:53:00,67.3,41.5,29.97,NE,45,4.6,4.6,39,0.00,,,0.00,WeatherDisplay:10.36,2013-07-28 01:53:00,
2013-07-27 20:58:00,67.1,42.0,29.97,NE,45,0.0,0.0,40,0.00,,,0.00,WeatherDisplay:10.36,2013-07-28 01:58:00,
2013-07-27 21:03:00,66.9,42.4,29.97,NE,46,0.0,0.0,41,0.00,,,0.00,WeatherDisplay:10.36,2013-07-28 02:03:00,
2013-07-27 21:08:00,66.9,43.1,29.97,NE,46,3.1,0.0,42,0.00,,,0.00,WeatherDisplay:10.36,2013-07-28 02:08:00,
2013-07-27 21:14:00,66.7,42.9,29.97,NE,45,4.6,4.6,42,0.00,,,0.00,WeatherDisplay:10.36,2013-07-28 02:14:00,
2013-07-27 21:19:00,66.6,43.4,29.97,NE,45,0.0,0.0,43,0.00,,,0.00,WeatherDisplay:10.36,2013-07-28 02:19:00,
2013-07-27 21:24:00,66.4,43.2,29.97,NE,46,0.0,0.0,43,0.00,,,0.00,WeatherDisplay:10.36,2013-07-28 02:24:00,
2013-07-27 21:29:00,66.2,43.0,29.97,NE,46,0.0,0.0,43,0.00,,,0.00,WeatherDisplay:10.36,2013-07-28 02:29:00,
2013-07-27 21:34:00,66.2,43.6,29.97,NE,46,0.0,0.0,44,0.00,,,0.00,WeatherDisplay:10.36,2013-07-28 02:34:00,
2013-07-27 21:39:00,66.0,43.5,29.97,NE,46,0.0,0.0,44,0.00,,,0.00,WeatherDisplay:10.36,2013-07-28 02:39:00,
2013-07-27 21:44:00,65.8,43.3,29.97,NE,46,0.0,0.0,44,0.00,,,0.00,WeatherDisplay:10.36,2013-07-28 02:44:00,
2013-07-27 21:49:00,65.7,43.7,30.00,NE,46,0.0,0.0,45,0.00,,,0.00,WeatherDisplay:10.36,2013-07-28 02:49:00,
2013-07-27 21:54:00,65.7,43.7,30.00,NE,45,0.0,0.0,45,0.00,,,0.00,WeatherDisplay:10.36,2013-07-28 02:54:00,
2013-07-27 21:59:00,65.5,44.1,30.00,NE,46,0.0,0.0,46,0.00,,,0.00,WeatherDisplay:10.36,2013-07-28 02:59:00,
2013-07-27 22:04:00,65.5,44.1,30.00,NE,46,0.0,0.0,46,0.00,,,0.00,WeatherDisplay:10.36,2013-07-28 03:04:00,
2013-07-27 22:09:00,65.3,44.0,30.00,NE,46,0.0,0.0,46,0.00,,,0.00,WeatherDisplay:10.36,2013-07-28 03:09:00,
2013-07-27 22:14:00,65.3,44.5,30.00,NE,45,0.0,0.0,47,0.00,,,0.00,WeatherDisplay:10.36,2013-07-28 03:14:00,
2013-07-27 22:19:00,65.1,44.4,30.00,NE,46,0.0,0.0,47,0.00,,,0.00,WeatherDisplay:10.36,2013-07-28 03:19:00,
2013-07-27 22:24:00,65.1,44.4,30.00,NE,45,3.5,0.0,47,0.00,,,0.00,WeatherDisplay:10.36,2013-07-28 03:24:00,
2013-07-27 22:29:00,64.8,43.5,30.00,North,351,0.0,0.0,46,0.00,,,0.00,WeatherDisplay:10.36,2013-07-28 03:29:00,
2013-07-27 22:34:00,64.8,43.5,30.79,NE,45,8.1,8.1,46,0.00,,,0.00,WeatherDisplay:10.36,2013-07-28 03:34:00,
2013-07-27 22:39:00,64.6,43.3,30.79,NE,44,5.8,0.0,46,0.00,,,0.00,WeatherDisplay:10.36,2013-07-28 03:39:00,
2013-07-27 22:44:00,64.6,42.7,30.79,NE,46,3.5,0.0,45,0.00,,,0.00,WeatherDisplay:10.36,2013-07-28 03:44:00,
2013-07-27 22:49:00,64.6,42.7,30.00,NE,45,0.0,0.0,45,0.00,,,0.00,WeatherDisplay:10.36,2013-07-28 03:49:00,
2013-07-27 22:55:00,64.4,42.6,30.00,NE,46,4.6,4.6,45,0.00,,,0.00,WeatherDisplay:10.36,2013-07-28 03:55:00,
2013-07-27 23:00:00,64.4,42.6,30.00,NE,46,4.9,4.9,45,0.00,,,0.00,WeatherDisplay:10.36,2013-07-28 04:00:00,
2013-07-27 23:01:00,64.4,42.6,30.00,NE,46,4.9,4.9,45,0.00,,,0.00,WeatherDisplay:10.36,2013-07-28 04:01:00,
2013-07-27 23:02:00,64.4,42.6,30.00,North,351,4.9,4.9,45,0.00,,,0.00,WeatherDisplay:10.36,2013-07-28 04:02:00,
2013-07-27 23:05:00,64.2,41.8,30.00,NE,46,4.9,0.0,44,0.00,,,0.00,WeatherDisplay:10.36,2013-07-28 04:05:00,
2013-07-27 23:07:00,64.0,42.3,30.00,North,351,4.5,0.0,45,0.00,,,0.00,WeatherDisplay:10.36,2013-07-28 04:07:00,
2013-07-27 23:09:00,63.9,42.1,30.00,NE,45,3.5,3.5,45,0.00,,,0.00,WeatherDisplay:10.36,2013-07-28 04:09:00,
2013-07-27 23:14:00,63.9,42.1,30.00,NE,45,3.1,0.0,45,0.00,,,0.00,WeatherDisplay:10.36,2013-07-28 04:14:00,
2013-07-27 23:19:00,63.9,42.1,30.00,NE,46,3.6,3.6,45,0.00,,,0.00,WeatherDisplay:10.36,2013-07-28 04:19:00,
2013-07-27 23:24:00,63.7,41.9,30.00,North,351,3.5,0.0,45,0.00,,,0.00,WeatherDisplay:10.36,2013-07-28 04:24:00,
2013-07-27 23:29:00,63.5,41.8,30.00,North,351,0.0,0.0,45,0.00,,,0.00,WeatherDisplay:10.36,2013-07-28 04:29:00,
2013-07-27 23:34:00,63.5,42.3,30.82,North,351,0.0,0.0,46,0.00,,,0.00,WeatherDisplay:10.36,2013-07-28 04:34:00,
2013-07-27 23:39:00,63.3,42.2,30.82,North,351,0.0,0.0,46,0.00,,,0.00,WeatherDisplay:10.36,2013-07-28 04:39:00,
2013-07-27 23:44:00,63.1,42.0,30.82,North,351,0.0,0.0,46,0.00,,,0.00,WeatherDisplay:10.36,2013-07-28 04:44:00,
2013-07-27 23:49:00,62.8,42.2,30.82,North,351,0.0,0.0,47,0.00,,,0.00,WeatherDisplay:10.36,2013-07-28 04:49:00,
2013-07-27 23:54:00,62.6,42.1,30.82,North,351,0.0,0.0,47,0.00,,,0.00,WeatherDisplay:10.36,2013-07-28 04:54:00,
2013-07-27 23:59:00,62.4,41.9,30.82,North,351,0.0,0.0,47,0.00,,,0.00,WeatherDisplay:10.36,2013-07-28 04:59:00,